Date String (YYYY-MM-DD hh:mm:ss) UTC,Instrument flags,absolute air pressure of the measurement (hPa),sample flow rate (lpm),inlet stack bypass flow (lpm),air temperature of the measurement (°C),ambient temperature measured by the external sensor (°C),aerosol sample conditioner tube jacket temperature (°C),OPC LED temperature (°C),internal box temperature (°C),relative humidity of the measurement (%),span deviation,mass concentration of particles derived from Lorenz-Mie calculation of OPC scattering (μg/m³),mass concentration of particles derived from Lorenz-Mie calculation of OPC scattering (μg/m³),mass concentration of particles derived from Lorenz-Mie calculation of OPC scattering (μg/m³)
DateTimeUTC,F1_M11,P_M11,Q1_M11,Q2_M11,T1_M11,T2_M11,T3_M11,T4_M11,T5_M11,U1_M11,ZSPAN_M11,X0_M11,X2_M11,X1_M11
2024-03-01 14:00:00,SystemResetWarning,0822.0,5.01,000.00,020.0,019.3,000.0,028.3,021.7,11.3,0000.0,0009.85,0002.84,0001.38
2024-03-01 14:01:00,SystemResetWarning,0822.1,5.00,000.00,020.0,019.3,000.0,028.3,021.7,11.1,0000.0,0009.42,0002.73,0001.37
2024-03-01 14:02:00,SystemResetWarning,0822.1,5.00,000.00,020.0,019.3,000.0,028.3,021.7,11.3,0000.0,0009.75,0002.72,0001.37
2024-03-01 14:03:00,SystemResetWarning,0822.1,4.98,000.00,020.0,019.3,000.0,028.3,021.7,11.3,0000.0,0009.64,0002.75,0001.37
2024-03-01 14:04:00,SystemResetWarning,0822.1,5.01,000.00,020.0,019.3,000.0,028.3,021.7,11.3,0000.0,0009.14,0002.81,0001.39
2024-03-01 14:05:00,SystemResetWarning,0822.1,5.00,000.00,020.0,019.3,000.0,028.3,021.7,11.3,0000.0,0009.27,0002.88,0001.41
2024-03-01 14:06:00,SystemResetWarning,0822.2,5.01,000.00,020.0,019.3,000.0,028.3,021.7,11.3,0000.0,0008.69,0002.88,0001.41
2024-03-01 14:07:00,SystemResetWarning,0822.1,5.00,000.00,020.0,019.3,000.0,028.3,021.7,11.4,0000.0,0007.52,0002.89,0001.41
2024-03-01 14:08:00,SystemResetWarning,0822.1,4.99,000.00,020.0,019.3,000.0,028.3,021.7,11.4,0000.0,0007.18,0002.89,0001.42
2024-03-01 14:09:00,SystemResetWarning,0822.1,4.99,000.00,020.0,019.3,000.0,028.2,021.7,11.5,0000.0,0007.40,0002.91,0001.42
2024-03-01 14:10:00,SystemResetWarning,0822.1,4.99,000.00,020.0,019.3,000.0,028.2,021.7,11.5,0000.0,0007.35,0002.85,0001.41
2024-03-01 14:11:00,SystemResetWarning,0822.1,5.00,000.00,020.0,019.3,000.0,028.3,021.7,11.5,0000.0,0007.47,0002.92,0001.41
2024-03-01 14:12:00,SystemResetWarning,0822.1,5.00,000.00,020.0,019.2,000.0,028.2,021.7,11.6,0000.0,0007.56,0002.97,0001.42
2024-03-01 14:13:00,SystemResetWarning,0822.2,5.00,000.00,020.0,019.2,000.0,028.2,021.7,11.5,0000.0,0007.48,0003.01,0001.43
2024-03-01 14:14:00,SystemResetWarning,0822.2,5.00,000.00,020.0,019.2,000.0,028.2,021.6,11.5,0000.0,0007.38,0003.02,0001.44
2024-03-01 14:15:00,SystemResetWarning,0822.1,5.00,000.00,020.0,019.2,000.0,028.2,021.6,11.7,0000.0,0007.35,0003.00,0001.43
2024-03-01 14:16:00,SystemResetWarning,0822.1,5.01,000.00,020.0,019.2,000.0,028.2,021.6,11.6,0000.0,0007.21,0002.90,0001.41
2024-03-01 14:17:00,SystemResetWarning,0822.0,5.00,000.00,020.0,019.2,000.0,028.2,021.6,11.7,0000.0,0007.18,0002.88,0001.39
2024-03-01 14:18:00,SystemResetWarning,0822.0,5.00,000.00,020.0,019.2,000.0,028.2,021.6,11.7,0000.0,0007.51,0003.00,0001.39
2024-03-01 14:19:00,SystemResetWarning,0821.9,4.99,000.00,019.9,019.2,000.0,028.2,021.6,11.7,0000.0,0007.51,0003.04,0001.42
2024-03-01 14:20:00,SystemResetWarning,0821.9,4.99,000.00,019.9,019.2,000.0,028.2,021.6,11.7,0000.0,0007.39,0003.05,0001.41
2024-03-01 14:21:00,SystemResetWarning,0822.0,4.99,000.00,019.9,019.2,000.0,028.2,021.6,11.6,0000.0,0007.54,0003.10,0001.42
2024-03-01 14:22:00,SystemResetWarning,0821.9,5.00,000.00,019.9,019.2,000.0,028.2,021.6,11.8,0000.0,0007.54,0003.06,0001.42
2024-03-01 14:23:00,SystemResetWarning,0821.7,5.01,000.00,019.9,019.2,000.0,028.2,021.6,11.7,0000.0,0007.55,0003.08,0001.43
2024-03-01 14:24:00,SystemResetWarning,0821.8,5.01,000.00,019.9,019.2,000.0,028.2,021.6,11.8,0000.0,0007.31,0003.09,0001.42
2024-03-01 14:25:00,SystemResetWarning,0822.0,5.01,000.00,019.9,019.2,000.0,028.2,021.6,11.9,0000.0,0007.44,0003.10,0001.43
2024-03-01 14:26:00,SystemResetWarning,0822.0,5.01,000.00,019.9,019.2,000.0,028.2,021.6,12.0,0000.0,0007.57,0003.12,0001.44
2024-03-01 14:27:00,SystemResetWarning,0821.9,5.00,000.00,019.9,019.2,000.0,028.2,021.6,12.0,0000.0,0007.54,0003.13,0001.45
2024-03-01 14:28:00,SystemResetWarning,0821.9,5.00,000.00,019.9,019.2,000.0,028.2,021.6,11.8,0000.0,0007.50,0003.12,0001.46
2024-03-01 14:29:00,SystemResetWarning,0822.0,5.00,000.00,019.9,019.2,000.0,028.2,021.6,11.8,0000.0,0007.32,0003.07,0001.48
2024-03-01 14:30:00,SystemResetWarning,0822.1,5.00,000.00,019.9,019.2,000.0,028.2,021.6,11.8,0000.0,0007.52,0003.05,0001.47
2024-03-01 14:31:00,SystemResetWarning,0822.0,4.99,000.00,019.9,019.2,000.0,028.2,021.6,11.8,0000.0,0007.84,0003.09,0001.49
2024-03-01 14:32:00,SystemResetWarning,0822.2,5.00,000.00,019.9,019.2,000.0,028.2,021.6,11.9,0000.0,0007.74,0003.10,0001.50
2024-03-01 14:33:00,SystemResetWarning,0822.1,5.00,000.00,019.9,019.2,000.0,028.2,021.6,11.8,0000.0,0008.24,0003.13,0001.51
2024-03-01 14:34:00,SystemResetWarning,0822.1,5.00,000.00,019.9,019.2,000.0,028.2,021.6,11.6,0000.0,0008.41,0003.14,0001.52
2024-03-01 14:35:00,SystemResetWarning,0822.3,5.00,000.00,019.9,019.2,000.0,028.2,021.6,11.7,0000.0,0008.64,0003.15,0001.53
2024-03-01 14:36:00,SystemResetWarning,0822.2,5.00,000.00,019.9,019.2,000.0,028.2,021.6,11.7,0000.0,0008.82,0003.17,0001.54
2024-03-01 14:37:00,SystemResetWarning,0822.3,5.00,000.00,019.9,019.2,000.0,028.1,021.6,11.7,0000.0,0008.68,0003.17,0001.56
2024-03-01 14:38:00,SystemResetWarning,0822.4,5.00,000.00,019.9,019.2,000.0,028.1,021.5,11.8,0000.0,0008.71,0003.20,0001.56
2024-03-01 14:39:00,SystemResetWarning,0822.4,5.00,000.00,019.9,019.2,000.0,028.1,021.6,11.9,0000.0,0008.76,0003.22,0001.57
2024-03-01 14:40:00,SystemResetWarning,0822.4,5.00,000.00,019.9,019.2,000.0,028.1,021.6,11.8,0000.0,0008.77,0003.24,0001.57
2024-03-01 14:41:00,SystemResetWarning,0822.4,5.00,000.00,019.9,019.2,000.0,028.1,021.6,11.7,0000.0,0008.62,0003.25,0001.56
2024-03-01 14:42:00,SystemResetWarning,0822.4,5.00,000.00,019.9,019.1,000.0,028.1,021.6,11.7,0000.0,0008.32,0003.23,0001.55
2024-03-01 14:43:00,SystemResetWarning,0822.4,5.00,000.00,019.9,019.1,000.0,028.1,021.5,11.7,0000.0,0008.29,0003.22,0001.53
2024-03-01 14:44:00,SystemResetWarning,0822.4,5.01,000.00,019.8,019.1,000.0,028.1,021.5,11.8,0000.0,0007.97,0003.26,0001.52
2024-03-01 14:45:00,SystemResetWarning,0822.6,5.00,000.00,019.8,019.1,000.0,028.1,021.5,11.8,0000.0,0007.89,0003.27,0001.52
2024-03-01 14:46:00,SystemResetWarning,0822.8,5.00,000.00,019.8,019.1,000.0,028.1,021.5,11.8,0000.0,0008.18,0003.31,0001.53
2024-03-01 14:47:00,SystemResetWarning,0823.0,5.00,000.00,019.9,019.1,000.0,028.1,021.5,11.8,0000.0,0008.13,0003.27,0001.52
2024-03-01 14:48:00,SystemResetWarning,0822.7,5.00,000.00,019.8,019.1,000.0,028.1,021.5,11.8,0000.0,0008.13,0003.24,0001.51
2024-03-01 14:49:00,SystemResetWarning,0822.5,5.00,000.00,019.8,019.1,000.0,028.1,021.5,11.7,0000.0,0008.20,0003.22,0001.51
2024-03-01 14:50:00,SystemResetWarning,0822.6,5.00,000.00,019.8,019.1,000.0,028.1,021.5,11.6,0000.0,0008.24,0003.21,0001.51
2024-03-01 14:51:00,SystemResetWarning,0822.5,5.00,000.00,019.8,019.2,000.0,028.1,021.5,11.7,0000.0,0008.10,0003.19,0001.51
2024-03-01 14:52:00,SystemResetWarning,0823.0,5.00,000.00,019.8,019.2,000.0,028.1,021.5,11.7,0000.0,0007.89,0003.14,0001.51
2024-03-01 14:53:00,SystemResetWarning,0822.8,5.00,000.00,019.9,019.2,000.0,028.1,021.5,11.8,0000.0,0007.75,0003.11,0001.53
2024-03-01 14:54:00,SystemResetWarning,0822.9,5.00,000.00,019.8,019.2,000.0,028.1,021.6,11.8,0000.0,0007.83,0003.11,0001.55
2024-03-01 14:55:00,SystemResetWarning,0822.6,5.00,000.00,019.8,019.2,000.0,028.1,021.6,11.8,0000.0,0007.59,0003.03,0001.55
2024-03-01 14:56:00,SystemResetWarning,0822.6,5.00,000.00,019.8,019.2,000.0,028.1,021.6,11.8,0000.0,0007.63,0003.08,0001.56
2024-03-01 14:57:00,SystemResetWarning,0822.8,5.01,000.00,019.9,019.2,000.0,028.1,021.5,11.7,0000.0,0007.31,0002.98,0001.55
2024-03-01 14:58:00,SystemResetWarning,0822.9,5.00,000.00,019.9,019.2,000.0,028.1,021.5,11.9,0000.0,0006.63,0003.00,0001.55
2024-03-01 14:59:00,SystemResetWarning,0822.7,5.00,000.00,019.9,019.2,000.0,028.1,021.5,11.8,0000.0,0006.88,0003.06,0001.54
